Regional Weather Roundup
Issued by NWS

Home | Current Version | Previous Version | Text Only | Print | Product List | Glossary On
Versions: 1 2 3 4 5 6 7 8 9 10 11 12 13 14 15 16 17 18 19 20 21 22 23 24 25 26 27 28 29 30 31 32 33 34 35 36 37 38 39 40 41 42 43 44 45 46 47 48 49 50
000
ASUS44 KFWD 041315
RWRTX
NORTH TEXAS HOURLY WEATHER ROUNDUP
NATIONAL WEATHER SERVICE FORT WORTH TX
800 AM CDT TUE AUG 04 2015

NOTE: "FAIR" INDICATES FEW OR NO CLOUDS BELOW 12,000 FEET WITH NO
SIGNIFICANT WEATHER AND/OR OBSTRUCTIONS TO VISIBILITY.

TXZ118-119-041400-
DALLAS/FORT WORTH METROPLEX

CITY           SKY/WX    TMP DP  RH WIND       PRES   REMARKS
DFW AIRPORT    PTSUNNY   83  66  56 S10       29.94R
DALLAS LOVE    PTSUNNY   83  68  60 S6        29.95R
FTW MEACHAM    MOSUNNY   82  66  58 S7        29.95R
DAL-EXECUTIVE  MOSUNNY   81  68  64 VRB3      29.95R
FTW-ALLIANCE   PTSUNNY   81  66  60 S5        29.95R
FTW-NAS-JRB    MOSUNNY   80  66  62 S6        29.95R
FTW-SPINKS     SUNNY     79  66  65 S5        29.97R
ARLINGTON      MOSUNNY   80  65  59 SE5       29.95S
ADDISON        PTSUNNY   82  66  57 S6        29.96S
MESQUITE       SUNNY     77  70  78 CALM      29.96R
LANCASTER      MOSUNNY   77  65  66 CALM      29.96S
$$

TXZ091>094-102>105-117-120-121-131>134-041400-
NORTH CENTRAL TEXAS

CITY           SKY/WX    TMP DP  RH WIND       PRES   REMARKS
SHRMAN/DENISON CLOUDY    82  67  62 CALM      29.98R
GAINESVILLE    CLOUDY    78  65  64 N6        29.99R
BOWIE          CLOUDY    76  65  67 CALM      29.97R
DECATUR        PTSUNNY   81  61  50 S7        29.97R
DENTON         CLOUDY    79  66  64 CALM      29.95R
MCKINNEY       PTSUNNY   79  67  66 S3        29.96R
GREENVILLE     CLOUDY    79  68  69 S3        29.97R
ROCKWALL       PTSUNNY   80  69  69 S7        29.95R
TERRELL        MOSUNNY   78  70  76 SE5       29.96R
WAXAHACHIE     MOSUNNY   77  69  77 CALM      29.98R
CLEBURNE         N/A     79  70  73 S7        29.98R
GRANBURY       SUNNY     79  66  64 CALM      29.98R
$$

TXZ083>090-098>101-113>116-127>130-139>142-154-155-041400-
WESTERN NORTH TEXAS

CITY           SKY/WX    TMP DP  RH WIND       PRES   REMARKS
WICHITA FALLS  LGT RAIN  73  69  87 E13       29.95R
WF-KICKAPOO    CLOUDY    79  65  62 N6        29.96R
VERNON         CLOUDY    74  66  76 E7        29.97R
ABILENE        CLOUDY    78  60  53 SW5       29.99R
ABILENE-DYESS  CLOUDY    79  61  53 S6        29.97R
BRECKENRIDGE   MOSUNNY   79  62  56 S6        29.96R
GRAHAM         SUNNY     77  66  68 SE5       29.93S
MINERAL WELLS  SUNNY     75  66  73 SE7       29.95R
STEPHENVILLE   SUNNY     75  65  70 CALM      30.01R
COMANCHE       MOSUNNY   76  66  70 S7        29.99R
BROWNWOOD      MOSUNNY   75  64  69 SE6       29.99S
COLEMAN        MOSUNNY   76  63  63 S6        30.00R
BRADY          SUNNY     75  66  73 S5        30.01R
$$

TXZ143>147-156>162-174-175-041400-
CENTRAL TEXAS

CITY           SKY/WX    TMP DP  RH WIND       PRES   REMARKS
WACO           MOSUNNY   80  71  74 S7        29.97R
HILLSBORO      MOSUNNY   79  67  67 SE5       29.97R
CORSICANA      MOSUNNY   79  71  76 S5        29.98R
MEXIA          SUNNY     75  71  88 SE12      29.97R
HEARNE         SUNNY     76  73  88 SE3       29.98R
CAMERON        SUNNY     78  73  86 SE3       29.97R
TEMPLE         SUNNY     77  68  73 S6        29.98R
KILLEEN        SUNNY     77  71  81 SW7       29.98R
KILLEEN-SKYLRK SUNNY     79  68  69 S8        29.98R
FORT HOOD      SUNNY     78  72  81 SW6       29.97R
GATESVILLE     SUNNY     79  70  73 CALM      30.00R
HAMILTON       SUNNY     77  67  71 S6        30.00S
LAMPASAS       SUNNY     76  71  85 CALM      29.99R
$$

TXZ095>097-106>112-122>126-135>138-148>153-164>167-041400-
EAST TEXAS

CITY           SKY/WX    TMP DP  RH WIND       PRES   REMARKS
PARIS          CLOUDY    77  64  65 SE6       29.97S
SULPHUR SPRNGS CLOUDY    82  68  63 SW7       29.99R
MOUNT PLEASANT MOSUNNY   76  67  74 CALM      29.99R
GILMER         MOSUNNY   76  65  69 CALM      29.98R
MINEOLA        MOSUNNY   77  70  78 CALM      29.98R
TYLER          SUNNY     78  68  71 S5        29.98R
LONGVIEW       SUNNY     78  68  71 S5        29.97R
MARSHALL       SUNNY     78  71  78 S3        30.00R
ATHENS         SUNNY     73  68  83 CALM      29.96S
PALESTINE      SUNNY     76  72  85 CALM      29.99R
JACKSONVILLE   SUNNY     78  70  76 S5        30.01R
HENDERSON      SUNNY     74  69  84 CALM      29.99R
CENTER         FAIR      78  72  83 CALM      29.97S
NACOGDOCHES    SUNNY     73  70  88 CALM      29.98R
LUFKIN         SUNNY     74  71  91 CALM      29.98R
$$

SUPPLEMENTAL OBSERVATIONS (CENTRAL)

CITY           SKY/WX    TMP DP  RH WIND       PRES   REMARKS
LAKE TEXOMA      N/A     79  70  73 CALM        N/A
CADDO GRASSLND   N/A     81  66  61 CALM        N/A
ATHENS           N/A     79  68  69 S3          N/A
LAKE LIMESTONE   N/A     77  72  83 S5          N/A
MCGREGOR         N/A     79  70  73 S3          N/A
TEMPLE           N/A     79  72  78 S3          N/A
$$

SUPPLEMENTAL OBSERVATIONS (WEST)

CITY           SKY/WX    TMP DP  RH WIND       PRES   REMARKS
MILLERS CREEK    N/A     79  63  57 SW7         N/A
POSSUM KINGDOM   N/A     81  63  54 S8          N/A
GRANBURY         N/A     79  64  61 W2          N/A
COMANCHE         N/A     77  63  61 S8          N/A
HAMBY            N/A     79  59  50 S6          N/A
IVIE RESERVOIR   N/A     79  64  61 SE2         N/A
COLORADO BEND    N/A     79  70  73 SW5         N/A
$$

SUPPLEMENTAL OBSERVATIONS (EAST)

CITY           SKY/WX    TMP DP  RH WIND       PRES   REMARKS
TEXARKANA        N/A     73  68  83 CALM        N/A
LINDEN           N/A     79  70  73 E1          N/A
CADDO LAKE       N/A     77  73  88 CALM        N/A
LUFKIN           N/A     77  72  83 MISG        N/A
N SABINE NF      N/A     73  70  88 MISG        N/A
$$

SUPPLEMENTAL OBSERVATIONS ARE A COLLECTION OF AUTOMATED INSTRUMENTS
THAT ARE MAINTAINED BY A VARIETY OF FEDERAL AND STATE AGENCIES.
CERTAIN ELEMENTS...SUCH AS HUMIDITY VALUES AND SUSTAINED WIND
SPEEDS...MAY BE APPROXIMATED.




USA.gov is the U.S. government's official web portal to all federal, state and local government web resources and services.